This is the latest recevied weather packets stored in our database for station/object DB0TV-13. If no packets are shown the sender has not sent any weather packets the latest 10 day(s).
| Time | Temp. | Humidity | Pressure | Rain* | Wind** | Luminosity | Snow |
|---|---|---|---|---|---|---|---|
| 1778071820 | 7.22° C | 98% | 1006.5 hPa | 1.02 mm | - | 107 W/m² | - |
| 1778071220 | 7.22° C | 98% | 1006.5 hPa | 0.76 mm | - | 85 W/m² | - |
| 1778070619 | 7.22° C | 98% | 1006.4 hPa | 0.76 mm | - | 99 W/m² | - |
| 1778070020 | 7.78° C | 98% | 1006.4 hPa | 0.51 mm | - | 96 W/m² | - |
| 1778069420 | 7.78° C | 98% | 1006.3 hPa | 0.51 mm | - | 68 W/m² | - |
| 1778068820 | 7.78° C | 98% | 1006.1 hPa | 0.25 mm | - | 59 W/m² | - |
| 1778068220 | 7.78° C | 98% | 1006.2 hPa | 0 mm | - | 81 W/m² | - |
| 1778067620 | 7.78° C | 98% | 1006 hPa | 0 mm | - | 67 W/m² | - |
| 1778067020 | 7.78° C | 98% | 1005.9 hPa | 0 mm | - | 71 W/m² | - |
| 1778066420 | 7.78° C | 98% | 1005.8 hPa | 0 mm | - | 76 W/m² | - |
| 1778065819 | 8.33° C | 98% | 1005.8 hPa | 0 mm | - | 69 W/m² | - |
| 1778065219 | 8.33° C | 98% | 1006 hPa | 0.25 mm | - | 67 W/m² | - |
| 1778064620 | 8.33° C | 98% | 1005.9 hPa | 0.25 mm | - | 99 W/m² | - |
| 1778064020 | 8.33° C | 98% | 1006 hPa | 0.25 mm | - | 84 W/m² | - |
| 1778063419 | 8.33° C | 98% | 1005.7 hPa | 0.25 mm | - | 78 W/m² | - |
| 1778062819 | 8.33° C | 98% | 1005.7 hPa | 0.25 mm | - | 77 W/m² | - |
| 1778062220 | 8.33° C | 98% | 1005.6 hPa | 0.51 mm | - | 86 W/m² | - |
| 1778061619 | 8.33° C | 98% | 1005.6 hPa | 0.25 mm | - | 78 W/m² | - |
| 1778061020 | 8.33° C | 98% | 1005.5 hPa | 0.25 mm | - | 93 W/m² | - |
| 1778060419 | 8.33° C | 98% | 1005.5 hPa | 0.51 mm | - | 97 W/m² | - |
| 1778059819 | 8.33° C | 98% | 1005.3 hPa | 0.51 mm | - | 87 W/m² | - |
| 1778059219 | 8.33° C | 98% | 1005.3 hPa | 0.51 mm | - | 76 W/m² | - |
| 1778058619 | 8.33° C | 98% | 1005.3 hPa | 0.51 mm | - | 72 W/m² | - |
| 1778058019 | 8.33° C | 98% | 1005.1 hPa | 0.76 mm | - | 72 W/m² | - |
| 1778057419 | 8.33° C | 98% | 1005.1 hPa | 1.02 mm | - | 65 W/m² | - |
* Rain latest hour (hover to see other rain measurements)
** Current wind speed in m/s (hover to see current wind gust speed)